Regional Weather Roundup
Issued by NWS

Home | Current Version | Previous Version | Text Only | Print | Product List | Glossary Off
Versions: 1 2 3 4 5 6 7 8 9 10 11 12 13 14 15 16 17 18 19 20 21 22 23 24 25 26 27 28 29 30 31 32 33 34 35 36 37 38 39 40 41 42 43 44 45 46 47 48 49 50

000
ASUS43 KLMK 041910
RWRKY
KENTUCKY REGIONAL WEATHER ROUNDUP
NATIONAL WEATHER SERVICE LOUISVILLE KY
300 PM EDT FRI SEP 04 2015

NOTE "FAIR" INDICATES FEW OR NO CLOUDS BELOW 12,000 FEET
WITH NO SIGNIFICANT WEATHER AND/OR OBSTRUCTIONS TO VISIBILITY.

KYZ001>023-026-027-061>063-070>075-042000-
WESTERN AND SOUTH CENTRAL KENTUCKY

CITY           SKY/WX    TMP DP  RH WIND       PRES   REMARKS
PADUCAH        MOSUNNY   92  67  43 SE6       30.01F HX  95
HENDERSON      MOSUNNY   91  68  46 SE3       30.01F HX  95
OWENSBORO      SUNNY     95  69  42 W5        30.03F HX 100
HOPKINSVILLE   MOSUNNY   91  66  43 N3        30.02F HX  94
BOWLING GREEN  SUNNY     94  63  35 SE9       30.03F HX  95
GLASGOW        PTSUNNY   94  61  33 S5        30.04F HX  93
$$

KYZ024-025-028>034-038-045-046-053-042000-
NORTH CENTRAL KENTUCKY

CITY           SKY/WX    TMP DP  RH WIND       PRES   REMARKS
LOUISVILLE/SDF MOSUNNY   92  63  38 VRB5      30.02F HX  93
LOUISVILLE/LOU SUNNY     90  64  42 W6        30.03F HX  91
FORT KNOX      MOSUNNY   91  66  43 VRB1      30.03F HX  93
$$

KYZ035>037-039>044-047>052-055>060-089>105-042000-
NORTHEAST KENTUCKY

CITY           SKY/WX    TMP DP  RH WIND       PRES   REMARKS
LEXINGTON      MOSUNNY   91  63  39 VRB5      30.05F HX  92
COVINGTON      MOSUNNY   92  67  43 VRB5      30.04F HX  95
FRANKFORT      SUNNY     91  63  39 CALM      30.04F HX  92
$$

KYZ054-064>069-076>088-106>120-042000-
SOUTHEAST KENTUCKY

CITY           SKY/WX    TMP DP  RH WIND       PRES   REMARKS
JACKSON        SUNNY     88  65  46 CALM      30.08F HX  90
LONDON         SUNNY     89  61  38 E6        30.08F
SOMERSET       MOSUNNY   86  61  42 CALM      30.07F
MIDDLESBORO    SUNNY     88  63  42 N3        30.07F
MONTICELLO     CLEAR     91  67  45 VRB7      30.09S HX  94
$$



USA.gov is the U.S. government's official web portal to all federal, state and local government web resources and services.